Regional Weather Roundup
Issued by NWS

Home | Current Version | Previous Version | Text Only | Print | Product List | Glossary Off
Versions: 1 2 3 4 5 6 7 8 9 10 11 12 13 14 15 16 17 18 19 20 21 22 23 24 25 26 27 28 29 30 31 32 33 34 35 36 37 38 39 40 41 42 43 44 45 46 47 48 49 50

000
ASUS43 KTOP 280459
RWRKS

WEATHER ROUNDUP FOR KANSAS
NATIONAL WEATHER SERVICE GOODLAND KS
1200 AM CDT WED JUN 28 2017

NOTE:  "FAIR" INDICATES FEW OR NO CLOUDS BELOW 12,000 FEET WITH NO
SIGNIFICANT WEATHER AND/OR OBSTRUCTIONS TO VISIBILITY.

KSZ001>006-013>018-027>032-041>047-280600-
NORTHWEST KANSAS

CITY           SKY/WX    TMP DP  RH WIND       PRES   REMARKS
GOODLAND       CLOUDY    69  56  62 S20G28    29.75R
HAYS           MOCLDY    82  62  50 S20G30    29.76R
HILL CITY      CLOUDY    86  59  39 SW23G31   29.74R
RUSSELL        CLOUDY    82  61  48 S26G36    29.74R
$$

KSZ061>065-074>080-084>089-280600-
SOUTHWEST KANSAS

CITY           SKY/WX    TMP DP  RH WIND       PRES   REMARKS
DODGE CITY     CLOUDY    80  62  54 S23G35    29.79S
ELKHART          N/A     79  47  32 S23         N/A
GARDEN CITY    MOCLDY    80  55  42 S17G28    29.76S
LIBERAL        CLOUDY    79  56  45 S28G33    29.81S
$$

KSZ066>073-081>083-090>101-280600-
SOUTHEAST KANSAS

CITY           SKY/WX    TMP DP  RH WIND       PRES   REMARKS
CHANUTE          N/A    N/A N/A N/A MISG      29.92S
COFFEYVILLE    CLEAR     75  65  70 S10       29.93S
HUTCHINSON     MOCLDY    81  64  56 S18G29    29.80F
MEDICINE LODGE   N/A     81  62  52 S16G25    29.82F
PARSONS        CLEAR     76  64  66 S12G20    29.94S
WICHITA INTL   PTCLDY    78  66  66 S16       29.85F
WICHITA JABRA  MOCLDY    76  67  73 S18G25    29.86F
WICHITA MCCONL PTCLDY    77  65  66 S18G25    29.86F
WINFIELD       CLOUDY    76  67  73 S15       29.90S
$$

KSZ007>012-019>026-033>040-048>060-102>105-280600-
NORTHEAST KANSAS

CITY           SKY/WX    TMP DP  RH WIND       PRES   REMARKS
CONCORDIA      MOCLDY    78  67  68 S23G31    29.75R
EMPORIA        CLOUDY    74  64  71 S18G28    29.87S
LAWRENCE       CLOUDY    74  67  78 SE13      29.88S
MANHATTAN      PTCLDY    77  64  64 S18G31    29.80F
OLATHE IND     CLOUDY    73  65  75 S14       29.91S
OLATHE EXE     CLEAR     71  66  84 S12       29.91F
SALINA         PTCLDY    82  65  56 S22G33    29.77F
TOPEKA BILLARD CLOUDY    76  66  71 S14G22    29.84F
TOPEKA FORBES  CLOUDY    77  65  66 S15G23    29.85F
$$




USA.gov is the U.S. government's official web portal to all federal, state and local government web resources and services.